| time (UTC) | temp F | wind direction | speed knots | gust knots | rain 1hr in | rain 24hr in | rain mn in | humidity % | barometer mb |
| 20260505124313 | 68 | 356 | 0.9 | 6.1 | 0.00 | 0.00 | 0.00 | 59 | 1011.9 |
| 20260505123329 | 67 | 278 | 0.9 | 7.8 | 0.00 | 0.00 | 0.00 | 62 | 1011.8 |
| 20260505122325 | 66 | 143 | 0.9 | 5.2 | 0.00 | 0.00 | 0.00 | 62 | 1011.6 |
| 20260505121314 | 65 | 150 | 1.7 | 5.2 | 0.00 | 0.00 | 0.00 | 64 | 1011.6 |
| 20260505120315 | 64 | 148 | 1.7 | 4.3 | 0.00 | 0.00 | 0.00 | 66 | 1011.5 |
| 20260505115310 | 63 | 181 | 0.0 | 3.5 | 0.00 | 0.00 | 0.00 | 69 | 1011.6 |
| 20260505114325 | 62 | 181 | 0.9 | 4.3 | 0.00 | 0.00 | 0.00 | 72 | 1011.5 |
| 20260505113314 | 61 | 137 | 0.0 | 4.3 | 0.00 | 0.00 | 0.00 | 74 | 1011.4 |
| 20260505112309 | 61 | 223 | 0.0 | 2.6 | 0.00 | 0.00 | 0.00 | 76 | 1011.3 |
| 20260505111330 | 60 | 160 | 0.0 | 2.6 | 0.00 | 0.00 | 0.00 | 77 | 1011.2 |
| 20260505110321 | 59 | 150 | 0.0 | 2.6 | 0.00 | 0.00 | 0.00 | 79 | 1011.1 |
| 20260505101324 | 59 | 224 | 0.0 | 0.9 | 0.00 | 0.00 | 0.00 | 79 | 1011.0 |
| 20260505100323 | 59 | 193 | 0.0 | 2.6 | 0.00 | 0.00 | 0.00 | 78 | 1010.9 |
| 20260505095311 | 60 | 145 | 0.0 | 2.6 | 0.00 | 0.00 | 0.00 | 77 | 1010.7 |
| 20260505094333 | 60 | 135 | 0.0 | 1.7 | 0.00 | 0.00 | 0.00 | 76 | 1010.7 |
| 20260505093330 | 60 | 128 | 0.0 | 3.5 | 0.00 | 0.00 | 0.00 | 76 | 1010.7 |
| 20260505092325 | 60 | 308 | 0.0 | 3.5 | 0.00 | 0.00 | 0.00 | 76 | 1010.6 |
| 20260505091321 | 59 | 16 | 0.0 | 3.5 | 0.00 | 0.00 | 0.00 | 76 | 1010.7 |
| 20260505090308 | 59 | 140 | 0.0 | 0.9 | 0.00 | 0.00 | 0.00 | 76 | 1010.6 |
| 20260505085309 | 60 | 131 | 0.0 | 1.7 | 0.00 | 0.00 | 0.00 | 76 | 1010.6 |
| 20260505084322 | 60 | 11 | 0.0 | 0.9 | 0.00 | 0.00 | 0.00 | 75 | 1010.7 |
| 20260505083319 | 60 | 130 | 0.0 | 0.9 | 0.00 | 0.00 | 0.00 | 75 | 1010.7 |
| 20260505082332 | 60 | 96 | 0.0 | 1.7 | 0.00 | 0.00 | 0.00 | 74 | 1010.6 |
| 20260505081322 | 60 | 143 | 0.0 | 4.3 | 0.00 | 0.00 | 0.00 | 74 | 1010.3 |
| 20260505080315 | 60 | 240 | 0.0 | 3.5 | 0.00 | 0.00 | 0.00 | 75 | 1010.4 |
| 20260505075321 | 60 | 86 | 0.0 | 0.9 | 0.00 | 0.00 | 0.00 | 75 | 1010.5 |
| 20260505074318 | 60 | 126 | 0.0 | 0.9 | 0.00 | 0.00 | 0.00 | 74 | 1010.6 |
| 20260505073327 | 60 | 309 | 0.0 | 1.7 | 0.00 | 0.00 | 0.00 | 74 | 1010.7 |
| 20260505072324 | 60 | 122 | 0.9 | 2.6 | 0.00 | 0.00 | 0.00 | 73 | 1010.6 |
| 20260505071322 | 60 | 170 | 0.0 | 3.5 | 0.00 | 0.00 | 0.00 | 74 | 1010.6 |
| 20260505070335 | 60 | 138 | 0.0 | 6.1 | 0.00 | 0.00 | 0.00 | 74 | 1010.5 |
| 20260505065325 | 59 | 94 | 0.0 | 1.7 | 0.00 | 0.00 | 0.00 | 75 | 1010.5 |
| 20260505064341 | 59 | 86 | 0.0 | 0.9 | 0.00 | 0.00 | 0.00 | 75 | 1010.5 |
| 20260505063311 | 58 | 13 | 0.0 | 0.9 | 0.00 | 0.00 | 0.00 | 75 | 1010.4 |
| 20260505062322 | 58 | 131 | 0.0 | 0.9 | 0.00 | 0.00 | 0.00 | 75 | 1010.5 |
| 20260505061319 | 58 | 115 | 0.0 | 3.5 | 0.00 | 0.00 | 0.00 | 74 | 1010.6 |
| 20260505060328 | 59 | 105 | 0.0 | 1.7 | 0.00 | 0.00 | 0.00 | 74 | 1010.6 |
| 20260505055312 | 59 | 154 | 0.0 | 0.9 | 0.00 | 0.00 | 0.00 | 72 | 1010.7 |
| 20260505054335 | 60 | 346 | 0.0 | 3.5 | 0.00 | 0.00 | 0.00 | 72 | 1010.7 |
| 20260505053318 | 60 | 337 | 0.0 | 2.6 | 0.00 | 0.00 | 0.00 | 71 | 1010.7 |
| 20260505052314 | 60 | 328 | 0.0 | 3.5 | 0.00 | 0.00 | 0.00 | 71 | 1010.7 |
| 20260505051328 | 60 | 128 | 0.0 | 5.2 | 0.00 | 0.00 | 0.00 | 70 | 1010.8 |
| 20260505050341 | 60 | 111 | 0.0 | 0.9 | 0.00 | 0.00 | 0.00 | 70 | 1010.8 |
| 20260505041310 | 61 | 102 | 0.0 | 2.6 | 0.00 | 0.00 | 0.00 | 65 | 1010.8 |
| 20260505040324 | 61 | 126 | 0.0 | 1.7 | 0.00 | 0.00 | 0.00 | 63 | 1010.7 |
| 20260505035311 | 61 | 176 | 0.0 | 1.7 | 0.00 | 0.00 | 0.00 | 62 | 1010.6 |
| 20260505034328 | 61 | 135 | 0.0 | 4.3 | 0.00 | 0.00 | 0.00 | 61 | 1010.7 |
| 20260505033323 | 62 | 320 | 0.0 | 2.6 | 0.00 | 0.00 | 0.00 | 59 | 1010.7 |
| 20260505032334 | 62 | 161 | 0.0 | 2.6 | 0.00 | 0.00 | 0.00 | 57 | 1010.8 |
| 20260505031320 | 62 | 32 | 0.0 | 3.5 | 0.00 | 0.00 | 0.00 | 55 | 1010.8 |
| 20260505030334 | 63 | 333 | 0.0 | 1.7 | 0.00 | 0.00 | 0.00 | 54 | 1010.7 |
| 20260505025357 | 63 | 123 | 0.9 | 5.2 | 0.00 | 0.00 | 0.00 | 53 | 1010.8 |
| 20260505024323 | 63 | 158 | 0.0 | 5.2 | 0.00 | 0.00 | 0.00 | 52 | 1010.9 |
| 20260505023319 | 63 | 122 | 0.0 | 6.1 | 0.00 | 0.00 | 0.00 | 52 | 1010.9 |
| 20260505022312 | 63 | 219 | 0.0 | 4.3 | 0.00 | 0.00 | 0.00 | 53 | 1011.0 |
| 20260505021328 | 63 | 130 | 0.0 | 2.6 | 0.00 | 0.00 | 0.00 | 53 | 1010.9 |
| 20260505020315 | 64 | 96 | 0.0 | 2.6 | 0.00 | 0.00 | 0.00 | 54 | 1010.9 |
| 20260505015333 | 64 | 169 | 0.0 | 6.1 | 0.00 | 0.00 | 0.00 | 53 | 1010.8 |
| 20260505014311 | 64 | 121 | 0.0 | 5.2 | 0.00 | 0.00 | 0.00 | 53 | 1010.7 |
| 20260505013324 | 64 | 167 | 0.0 | 3.5 | 0.00 | 0.00 | 0.00 | 53 | 1010.7 |
| 20260505012317 | 64 | 139 | 0.0 | 1.7 | 0.00 | 0.00 | 0.00 | 52 | 1010.8 |
| 20260505011315 | 64 | 322 | 0.0 | 2.6 | 0.00 | 0.00 | 0.00 | 52 | 1010.6 |
| 20260505010319 | 64 | 150 | 0.9 | 3.5 | 0.00 | 0.00 | 0.00 | 51 | 1010.5 |
| 20260505005314 | 64 | 131 | 0.0 | 2.6 | 0.00 | 0.00 | 0.00 | 52 | 1010.5 |
| 20260505004310 | 64 | 105 | 0.0 | 0.9 | 0.00 | 0.00 | 0.00 | 51 | 1010.3 |
| 20260505003311 | 65 | 108 | 0.0 | 0.9 | 0.00 | 0.00 | 0.00 | 48 | 1010.2 |
| 20260505002344 | 66 | 320 | 0.0 | 2.6 | 0.00 | 0.00 | 0.00 | 47 | 1010.1 |
| 20260505001324 | 66 | 98 | 0.0 | 0.9 | 0.00 | 0.00 | 0.00 | 46 | 1010.1 |
| 20260505000315 | 67 | 117 | 0.0 | 1.7 | 0.00 | 0.00 | 0.00 | 43 | 1010.0 |
| 20260504235312 | 68 | 131 | 0.0 | 1.7 | 0.00 | 0.00 | 0.00 | 42 | 1010.0 |
| 20260504234356 | 69 | 111 | 0.0 | 1.7 | 0.00 | 0.00 | 0.00 | 41 | 1009.9 |
| 20260504233325 | 69 | 167 | 0.9 | 3.5 | 0.00 | 0.00 | 0.00 | 40 | 1009.9 |
| 20260504232322 | 69 | 147 | 0.0 | 2.6 | 0.00 | 0.00 | 0.00 | 40 | 1009.8 |
| 20260504231319 | 70 | 133 | 0.0 | 1.7 | 0.00 | 0.00 | 0.00 | 39 | 1009.8 |
| 20260504230309 | 70 | 146 | 0.0 | 6.1 | 0.00 | 0.00 | 0.00 | 38 | 1009.9 |
| 20260504225326 | 70 | 130 | 0.9 | 6.1 | 0.00 | 0.00 | 0.00 | 38 | 1009.9 |
| 20260504224324 | 71 | 359 | 0.0 | 4.3 | 0.00 | 0.00 | 0.00 | 37 | 1009.9 |
| 20260504223315 | 71 | 160 | 0.0 | 7.0 | 0.00 | 0.00 | 0.00 | 37 | 1009.9 |
| 20260504222312 | 71 | 113 | 1.7 | 8.7 | 0.00 | 0.00 | 0.00 | 36 | 1009.9 |
| 20260504221335 | 72 | 135 | 0.0 | 6.1 | 0.00 | 0.00 | 0.00 | 37 | 1009.8 |
| 20260504220324 | 72 | 177 | 1.7 | 7.0 | 0.00 | 0.00 | 0.00 | 35 | 1009.9 |
| 20260504215322 | 73 | 58 | 0.0 | 7.8 | 0.00 | 0.00 | 0.00 | 35 | 1010.0 |
| 20260504214318 | 73 | 264 | 0.0 | 3.5 | 0.00 | 0.00 | 0.00 | 34 | 1010.1 |
| 20260504213310 | 74 | 132 | 0.0 | 8.7 | 0.00 | 0.00 | 0.00 | 33 | 1010.1 |
| 20260504212312 | 74 | 229 | 0.0 | 5.2 | 0.00 | 0.00 | 0.00 | 32 | 1010.1 |
| 20260504211308 | 75 | 195 | 0.9 | 4.3 | 0.00 | 0.00 | 0.00 | 31 | 1010.1 |
| 20260504210325 | 75 | 120 | 1.7 | 4.3 | 0.00 | 0.00 | 0.00 | 32 | 1010.0 |
| 20260504205325 | 76 | 167 | 0.9 | 6.1 | 0.00 | 0.00 | 0.00 | 32 | 1010.1 |
| 20260504204325 | 75 | 47 | 0.9 | 8.7 | 0.00 | 0.00 | 0.00 | 31 | 1010.1 |
| 20260504203319 | 75 | 21 | 1.7 | 5.2 | 0.00 | 0.00 | 0.00 | 33 | 1010.0 |
| 20260504202319 | 75 | 282 | 2.6 | 9.6 | 0.00 | 0.00 | 0.00 | 32 | 1010.2 |
| 20260504201319 | 75 | 293 | 1.7 | 7.8 | 0.00 | 0.00 | 0.00 | 31 | 1010.2 |
| 20260504200314 | 76 | 304 | 0.0 | 6.1 | 0.00 | 0.00 | 0.00 | 33 | 1010.3 |
| 20260504195314 | 75 | 115 | 1.7 | 8.7 | 0.00 | 0.00 | 0.00 | 31 | 1010.4 |
| 20260504194314 | 75 | 122 | 1.7 | 7.0 | 0.00 | 0.00 | 0.00 | 30 | 1010.4 |
| 20260504193335 | 75 | 333 | 0.9 | 7.0 | 0.00 | 0.00 | 0.00 | 32 | 1010.5 |
| 20260504192312 | 75 | 276 | 2.6 | 7.0 | 0.00 | 0.00 | 0.00 | 30 | 1010.7 |
| 20260504191310 | 76 | 328 | 1.7 | 7.0 | 0.00 | 0.00 | 0.00 | 30 | 1010.7 |
| 20260504190331 | 75 | 137 | 1.7 | 7.8 | 0.00 | 0.00 | 0.00 | 31 | 1010.8 |
| 20260504185313 | 75 | 73 | 0.0 | 7.8 | 0.00 | 0.00 | 0.00 | 32 | 1011.0 |
| 20260504184334 | 75 | 296 | 0.9 | 5.2 | 0.00 | 0.00 | 0.00 | 32 | 1011.2 |
| 20260504183334 | 75 | 359 | 1.7 | 6.1 | 0.00 | 0.00 | 0.00 | 29 | 1011.3 |
| 20260504182323 | 74 | 114 | 0.9 | 7.0 | 0.00 | 0.00 | 0.00 | 32 | 1011.6 |
| 20260504181326 | 74 | 106 | 2.6 | 5.2 | 0.00 | 0.00 | 0.00 | 29 | 1011.7 |
| 20260504180308 | 74 | 260 | 0.9 | 5.2 | 0.00 | 0.00 | 0.00 | 29 | 1011.9 |
| 20260504175310 | 75 | 119 | 0.9 | 5.2 | 0.00 | 0.00 | 0.00 | 29 | 1012.0 |
| 20260504174332 | 74 | 123 | 0.9 | 6.1 | 0.00 | 0.00 | 0.00 | 30 | 1012.1 |
| 20260504173312 | 74 | 28 | 0.9 | 7.0 | 0.00 | 0.00 | 0.00 | 32 | 1012.2 |
| 20260504172311 | 74 | 160 | 1.7 | 4.3 | 0.00 | 0.00 | 0.00 | 31 | 1012.3 |
| 20260504171331 | 73 | 316 | 1.7 | 7.8 | 0.00 | 0.00 | 0.00 | 32 | 1012.4 |
| 20260504170326 | 72 | 156 | 1.7 | 7.0 | 0.00 | 0.00 | 0.00 | 30 | 1012.6 |
| 20260504160322 | 73 | 49 | 0.9 | 6.1 | 0.00 | 0.00 | 0.00 | 33 | 1013.4 |
| 20260504150320 | 68 | 250 | 0.0 | 7.0 | 0.00 | 0.00 | 0.00 | 41 | 1013.9 |
| 20260504141318 | 63 | 56 | 0.9 | 3.5 | 0.00 | 0.00 | 0.00 | 56 | 1014.0 |
| 20260504140314 | 63 | 269 | 0.9 | 7.0 | 0.00 | 0.00 | 0.00 | 55 | 1014.2 |